TimeCST,TemperatureF,Dew PointF,Humidity,Sea Level PressureIn,VisibilityMPH,Wind Direction,Wind SpeedMPH,Gust SpeedMPH,PrecipitationIn,Events,Conditions,WindDirDegrees,DateUTC
12:55 AM,35.6,30.2,81,29.99,10.0,NNE,5.8,-,N/A,,Mostly Cloudy,30,2012-12-25 06:55:00
1:15 AM,35.6,30.2,81,29.99,10.0,Variable,5.8,-,N/A,,Mostly Cloudy,0,2012-12-25 07:15:00
1:35 AM,33.8,30.2,87,30.00,10.0,Variable,4.6,-,N/A,,Mostly Cloudy,0,2012-12-25 07:35:00
1:55 AM,33.8,28.4,81,30.00,10.0,NNE,5.8,-,N/A,,Mostly Cloudy,30,2012-12-25 07:55:00
2:15 AM,33.8,28.4,81,30.02,10.0,NNE,6.9,-,N/A,,Clear,30,2012-12-25 08:15:00
2:35 AM,32.0,28.4,87,30.02,9.0,NE,6.9,-,N/A,,Clear,40,2012-12-25 08:35:00
2:55 AM,32.0,28.4,87,30.02,8.0,NNE,6.9,-,N/A,,Clear,30,2012-12-25 08:55:00
3:55 AM,30.2,28.4,93,30.03,7.0,NNE,5.8,-,N/A,,Overcast,20,2012-12-25 09:55:00
4:55 AM,32.0,30.2,93,29.98,7.0,NNE,9.2,-,N/A,,Overcast,30,2012-12-25 10:55:00
5:55 AM,32.0,30.2,93,29.99,7.0,NE,8.1,-,N/A,,Overcast,40,2012-12-25 11:55:00
6:55 AM,33.8,30.2,87,30.02,8.0,NNE,5.8,-,N/A,,Overcast,20,2012-12-25 12:55:00
7:55 AM,33.8,30.2,87,30.01,7.0,NE,9.2,-,N/A,,Overcast,40,2012-12-25 13:55:00
8:55 AM,33.8,30.2,87,30.03,7.0,NNE,8.1,-,N/A,,Overcast,20,2012-12-25 14:55:00
9:55 AM,33.8,30.2,87,30.03,7.0,NNE,8.1,-,N/A,,Overcast,30,2012-12-25 15:55:00
10:55 AM,35.6,30.2,81,30.01,7.0,NNE,10.4,-,N/A,,Overcast,30,2012-12-25 16:55:00
11:55 AM,35.6,30.2,81,29.92,7.0,NE,16.1,-,N/A,,Overcast,40,2012-12-25 17:55:00
12:55 PM,35.6,30.2,81,29.87,7.0,NE,6.9,-,N/A,,Overcast,50,2012-12-25 18:55:00
1:55 PM,37.4,32.0,81,29.81,7.0,NE,9.2,-,N/A,,Overcast,50,2012-12-25 19:55:00
2:55 PM,35.6,33.8,93,29.82,3.0,NE,9.2,-,N/A,Rain,Rain,40,2012-12-25 20:55:00
3:55 PM,35.6,33.8,93,29.81,2.0,NNE,15.0,-,N/A,Rain,Rain,20,2012-12-25 21:55:00
4:55 PM,35.6,33.8,93,29.73,4.0,NNE,17.3,-,N/A,,Overcast,20,2012-12-25 22:55:00
5:55 PM,35.6,33.8,93,29.67,9.0,NNE,17.3,38.0,N/A,,Overcast,30,2012-12-25 23:55:00
6:55 PM,35.6,33.8,93,29.62,7.0,NNE,17.3,33.4,N/A,,Overcast,30,2012-12-26 00:55:00
7:55 PM,35.6,33.8,93,29.54,6.0,NE,19.6,-,N/A,,Overcast,40,2012-12-26 01:55:00
8:55 PM,35.6,33.8,93,29.56,10.0,NNE,16.1,26.5,N/A,,Overcast,30,2012-12-26 02:55:00
10:55 PM,35.6,35.6,100,29.58,5.0,North,13.8,-,N/A,Rain,Light Rain,350,2012-12-26 04:55:00
11:55 PM,35.6,33.8,93,29.57,6.0,North,16.1,-,N/A,Rain,Light Rain,350,2012-12-26 05:55:00